Regional Weather Roundup
Issued by NWS Cleveland, OH

Home | Current Version | Previous Version | Graphics & Text | Print | Product List | Glossary On
Versions: 1 2 3 4 5 6 7 8 9 10 11 12 13 14 15 16 17 18 19 20 21 22 23 24 25 26 27 28 29 30 31 32 33 34 35 36 37 38 39 40 41 42 43 44 45 46 47 48 49 50
000
ASUS41 KCLE 050402
RWRCLE
OHIO REGIONAL WEATHER ROUNDUP
NATIONAL WEATHER SERVICE CLEVELAND, OH
1200 AM EDT SUN JUL 05 2015

NOTE: "FAIR" INDICATES FEW OR NO CLOUDS BELOW 12,000 FEET WITH NO
SIGNIFICANT WEATHER AND/OR OBSTRUCTIONS TO VISIBILITY.

OHZ001>008-015>018-024>027-034-035-043-044-050500-
   NORTHWEST OHIO

CITY           SKY/WX    TMP DP  RH WIND       PRES   REMARKS
DEFIANCE       CLEAR     65  60  84 MISG      30.06R
FINDLAY        CLEAR     66  57  72 E6        30.06R
TOLEDO EXPRESS CLEAR     61  56  83 CALM      30.06R
TOLEDO EXEC    CLEAR     66  54  65 CALM      30.07R
LIMA           CLEAR     63  59  87 CALM      30.06R
$$

OHZ009>014-019>023-028>033-038-089-050500-
   NORTHEAST OHIO

CITY           SKY/WX    TMP DP  RH WIND       PRES   REMARKS
CLE-HOPKINS    CLEAR     64  53  67 SE3       30.09R
CLE-LAKEFRONT  CLEAR     69  54  58 CALM      30.06R HAZE
CUY CO. ARPT   NOT AVBL
LORAIN-ELYRIA  CLEAR     58  54  86 S5        30.08R
ASHTABULA      CLEAR     57  56  96 CALM      30.09R FOG
AKRON-CANTON   CLEAR     64  51  62 CALM      30.08R
WOOSTER        CLEAR     58  56  93 CALM      30.09R
MANSFIELD      CLEAR     63  57  81 CALM      30.09R
YOUNGSTOWN     CLEAR     56  52  86 CALM      30.09R
$$

OHZ042-051>053-060>062-070>072-077>081-050500-
  SOUTHWEST OHIO

CITY           SKY/WX    TMP DP  RH WIND       PRES   REMARKS
CINC-COVINGTON CLOUDY    70  62  76 CALM      30.06R
CINC-LUNKEN    CLOUDY    65  63  93 CALM      30.06R
HAMILTON       CLOUDY    64  61  90 CALM      30.06R FOG
DAYTON         PTCLDY    70  59  68 SE6       30.08R
WRIGHT-PAT AFB PTCLDY    65  61  87 CALM      30.06R
DAYTON GENERAL MOCLDY    68  59  73 E6        30.06R
WILMINGTON     MOCLDY    65  58  78 CALM      30.07R
$$

OHZ036-037-039>041-045>050-054>059-063>069-073>076-082>088-050500-
  CENTRAL AND SOUTHEAST OHIO

CITY           SKY/WX    TMP DP  RH WIND       PRES   REMARKS
COLUMBUS       CLOUDY    66  57  72 CALM      30.06R
OSU AIRPORT    PTCLDY    66  57  72 CALM      30.07R
BOLTON FIELD   NOT AVBL
RICKENBACK AFB NOT AVBL
NEWARK         PTCLDY    60  58  92 CALM      30.07R
MARION         CLEAR     63  60  90 E3        30.08R
LANCASTER      PTCLDY    61  58  90 CALM      30.07R FOG
ZANESVILLE     NOT AVBL
NEW PHILLY     CLEAR     60  58  92 CALM      30.08R
$$


USA.gov is the U.S. government's official web portal to all federal, state and local government web resources and services.